Location: Stony Creek
(40.9500°S, 175.8500°E)
Time: 09:17:08
(UTC+00:00)

MOS 1 Rocket - Pass Details

Date: 15 May 2026
Orbit: 607 x 814 km, 97.4° (Epoch: 10 June)

Event Time Altitude Azimuth Distance (km) Brightness Sun altitude
Rises 17:51:48 0° 346° (NNW) 2,906 6.5 -16.2°
Reaches altitude 10° 17:54:10 10° 335° (NNW) 2,030 5.6 -15.8°
Maximum altitude 17:58:01 29° 274° (W) 1,221 4.0 -15.1°
Enters shadow 18:00:09 20° 232° (SW) 1,545 4.6 -14.7°
